GW6303 Weather Reports


time (UTC)temp
F
wind
direction
speed
knots
gust
knots
rain 1hr
in
rain 24hr
in
rain mn
in
humidity
%
barometer
mb
20260505153025 80 226 0.0 7.0 0.00 0.00 0.00 47 1012.1
20260505152524 80 190 1.7 7.0 0.00 0.00 0.00 44 1012.2
20260505152026 80 167 0.9 7.0 0.00 0.00 0.00 47 1012.2
20260505151523 80 143 0.9 5.2 0.00 0.00 0.00 46 1012.3
20260505151023 79 167 0.0 3.5 0.00 0.00 0.00 47 1012.4
20260505150522 79 300 0.0 3.5 0.00 0.00 0.00 47 1012.4
20260505140502 70 181 0.0 1.7 0.00 0.00 0.00 56 1013.0
20260505124551 65 199 0.0 0.9 0.00 0.00 0.00 65 1013.0
20260505124045 65 198 0.0 1.7 0.00 0.00 0.00 66 1013.0
20260505123540 64 182 0.0 3.5 0.00 0.00 0.00 67 1012.8
20260505123050 64 193 0.0 1.7 0.00 0.00 0.00 67 1012.8
20260505122538 63 194 0.0 1.7 0.00 0.00 0.00 69 1012.6
20260505122037 63 202 0.0 1.7 0.00 0.00 0.00 71 1012.7
20260505121609 62 220 0.0 1.7 0.00 0.00 0.00 71 1012.7
20260505121035 62 204 0.0 2.6 0.00 0.00 0.00 72 1012.7
20260505120534 62 204 0.0 2.6 0.00 0.00 0.00 72 1012.7
20260505120033 61 210 0.0 1.7 0.00 0.00 0.00 75 1012.7
20260505115531 60 204 0.0 1.7 0.00 0.00 0.00 75 1012.8
20260505115030 60 188 0.0 0.9 0.00 0.00 0.00 76 1012.7
20260505114530 59 199 0.0 0.9 0.00 0.00 0.00 78 1012.7
20260505114028 58 208 0.0 0.9 0.00 0.00 0.00 80 1012.8
20260505113526 57 207 0.0 0.9 0.00 0.00 0.00 81 1012.7
20260505113029 56 205 0.0 0.9 0.00 0.00 0.00 81 1012.7
20260505112530 56 203 0.0 0.0 0.00 0.00 0.00 83 1012.6
20260505112026 55 212 0.0 0.0 0.00 0.00 0.00 84 1012.6
20260505111534 55 218 0.0 0.0 0.00 0.00 0.00 84 1012.5
20260505111024 54 205 0.0 0.0 0.00 0.00 0.00 84 1012.5
20260505110523 54 208 0.0 0.0 0.00 0.00 0.00 85 1012.5
20260505102020 53 205 0.0 0.0 0.00 0.00 0.00 84 1012.4
20260505101520 53 206 0.0 0.0 0.00 0.00 0.00 84 1012.4
20260505101019 53 205 0.0 0.0 0.00 0.00 0.00 84 1012.2
20260505100519 53 206 0.0 0.0 0.00 0.00 0.00 84 1012.5
20260505100033 53 206 0.0 0.0 0.00 0.00 0.00 84 1012.2
20260505095519 53 206 0.0 0.0 0.00 0.00 0.00 84 1012.1
20260505095019 53 206 0.0 0.0 0.00 0.00 0.00 83 1011.9
20260505094516 53 206 0.0 0.0 0.00 0.00 0.00 83 1012.1
20260505094016 54 206 0.0 0.0 0.00 0.00 0.00 83 1012.0
20260505093516 54 207 0.0 0.0 0.00 0.00 0.00 83 1012.0
20260505093025 54 207 0.0 0.0 0.00 0.00 0.00 83 1012.1
20260505092516 54 207 0.0 0.0 0.00 0.00 0.00 83 1012.1
20260505092016 54 207 0.0 0.0 0.00 0.00 0.00 83 1012.0
20260505091518 53 207 0.0 0.0 0.00 0.00 0.00 83 1011.9
20260505091016 53 207 0.0 0.0 0.00 0.00 0.00 82 1011.8
20260505090514 54 207 0.0 0.0 0.00 0.00 0.00 81 1011.9
20260505090013 54 207 0.0 0.0 0.00 0.00 0.00 81 1011.9
20260505085512 54 207 0.0 0.0 0.00 0.00 0.00 81 1011.8
20260505085015 54 207 0.0 0.0 0.00 0.00 0.00 81 1011.8
20260505084511 54 207 0.0 0.0 0.00 0.00 0.00 79 1011.9
20260505084010 55 207 0.0 0.0 0.00 0.00 0.00 80 1011.8
20260505083514 55 207 0.0 0.0 0.00 0.00 0.00 79 1011.7
20260505083008 55 207 0.0 0.0 0.00 0.00 0.00 79 1011.8
20260505082508 55 207 0.0 0.0 0.00 0.00 0.00 79 1011.8
20260505082007 55 207 0.0 0.0 0.00 0.00 0.00 78 1011.9
20260505081507 56 207 0.0 0.0 0.00 0.00 0.00 78 1011.9
20260505081006 56 207 0.0 0.0 0.00 0.00 0.00 77 1011.9
20260505080504 56 207 0.0 0.0 0.00 0.00 0.00 78 1012.0
20260505080004 56 207 0.0 0.0 0.00 0.00 0.00 78 1011.9
20260505075504 56 207 0.0 0.0 0.00 0.00 0.00 78 1011.9
20260505075004 56 207 0.0 0.0 0.00 0.00 0.00 78 1012.0
20260505074507 56 207 0.0 0.0 0.00 0.00 0.00 77 1012.0
20260505074003 56 207 0.0 0.0 0.00 0.00 0.00 77 1012.0
20260505073503 56 207 0.0 0.0 0.00 0.00 0.00 77 1012.0
20260505073002 56 207 0.0 0.0 0.00 0.00 0.00 76 1011.9
20260505072503 56 207 0.0 0.0 0.00 0.00 0.00 76 1012.0
20260505072001 57 207 0.0 0.0 0.00 0.00 0.00 77 1011.9
20260505071501 57 207 0.0 0.0 0.00 0.00 0.00 77 1011.9
20260505071100 57 207 0.0 0.0 0.00 0.00 0.00 76 1012.0
20260505070559 57 207 0.0 0.0 0.00 0.00 0.00 75 1011.8
20260505070104 57 207 0.0 0.0 0.00 0.00 0.00 75 1011.8
20260505065600 57 207 0.0 0.0 0.00 0.00 0.00 74 1011.9
20260505065058 57 207 0.0 0.0 0.00 0.00 0.00 74 1011.9
20260505064608 57 207 0.0 0.0 0.00 0.00 0.00 74 1011.9
20260505064101 57 207 0.0 0.0 0.00 0.00 0.00 74 1011.8
20260505063557 57 207 0.0 0.0 0.00 0.00 0.00 74 1012.0
20260505063057 57 207 0.0 0.0 0.00 0.00 0.00 74 1011.9
20260505062557 57 207 0.0 0.0 0.00 0.00 0.00 73 1012.0
20260505062056 57 207 0.0 0.0 0.00 0.00 0.00 73 1012.0
20260505061556 57 207 0.0 0.0 0.00 0.00 0.00 73 1012.1
20260505061055 57 207 0.0 0.0 0.00 0.00 0.00 72 1012.0
20260505060559 58 207 0.0 0.9 0.00 0.00 0.00 72 1012.0
20260505060055 58 207 0.0 0.9 0.00 0.00 0.00 72 1012.0
20260505055554 58 207 0.0 0.0 0.00 0.00 0.00 71 1012.0
20260505055054 58 207 0.0 0.9 0.00 0.00 0.00 71 1011.9
20260505054619 58 207 0.0 0.9 0.00 0.00 0.00 70 1011.8
20260505054056 58 190 0.0 1.7 0.00 0.00 0.00 70 1011.8
20260505053552 58 179 0.0 1.7 0.00 0.00 0.00 71 1011.8
20260505053053 58 208 0.0 0.0 0.00 0.00 0.00 71 1011.9
20260505052552 58 208 0.0 0.0 0.00 0.00 0.00 71 1012.0
20260505052052 58 208 0.0 0.0 0.00 0.00 0.00 70 1011.9
20260505051652 58 204 0.0 0.0 0.00 0.00 0.00 70 1012.1
20260505051051 58 204 0.0 0.0 0.00 0.00 0.00 69 1012.1
20260505050549 58 201 0.0 0.0 0.00 0.00 0.00 69 1012.0
20260505041549 57 214 0.0 0.0 0.00 0.00 0.00 66 1012.0
20260505041040 57 214 0.0 0.0 0.00 0.00 0.00 65 1012.0
20260505040539 57 214 0.0 0.0 0.00 0.00 0.00 65 1012.0
20260505040042 57 214 0.0 0.0 0.00 0.00 0.00 65 1012.2
20260505035537 57 214 0.0 0.0 0.00 0.00 0.00 65 1012.1
20260505035040 57 214 0.0 0.0 0.00 0.00 0.00 64 1012.1
20260505034537 57 214 0.0 0.0 0.00 0.00 0.00 64 1012.0
20260505034037 57 214 0.0 0.0 0.00 0.00 0.00 64 1012.0
20260505033537 58 214 0.0 0.0 0.00 0.00 0.00 63 1012.1
20260505033037 58 214 0.0 0.0 0.00 0.00 0.00 63 1012.1
20260505032536 58 226 0.0 0.0 0.00 0.00 0.00 62 1012.3
20260505032036 58 226 0.0 0.0 0.00 0.00 0.00 62 1012.2
20260505031541 58 226 0.0 0.0 0.00 0.00 0.00 62 1012.2
20260505031036 59 226 0.0 0.0 0.00 0.00 0.00 61 1012.2
20260505030536 59 226 0.0 0.0 0.00 0.00 0.00 61 1012.2
20260505030053 59 226 0.0 0.0 0.00 0.00 0.00 61 1012.2
20260505025536 59 226 0.0 0.0 0.00 0.00 0.00 61 1012.4
20260505025036 59 226 0.0 0.0 0.00 0.00 0.00 62 1012.4
20260505024536 58 226 0.0 0.0 0.00 0.00 0.00 62 1012.3
20260505024035 58 226 0.0 0.0 0.00 0.00 0.00 61 1012.5
20260505023535 59 226 0.0 0.0 0.00 0.00 0.00 62 1012.4
20260505023035 59 226 0.0 0.0 0.00 0.00 0.00 61 1012.5
20260505022535 59 226 0.0 0.0 0.00 0.00 0.00 61 1012.5
20260505022035 59 226 0.0 0.0 0.00 0.00 0.00 60 1012.4
20260505021542 59 226 0.0 0.0 0.00 0.00 0.00 60 1012.4
20260505021034 59 226 0.0 0.0 0.00 0.00 0.00 59 1012.4
20260505020534 59 226 0.0 0.0 0.00 0.00 0.00 59 1012.4
20260505020048 59 226 0.0 0.0 0.00 0.00 0.00 59 1012.4
20260505015534 59 226 0.0 0.0 0.00 0.00 0.00 59 1012.4
20260505015034 59 226 0.0 0.0 0.00 0.00 0.00 59 1012.4
20260505014534 59 226 0.0 0.0 0.00 0.00 0.00 59 1012.4
20260505014033 59 204 0.0 0.0 0.00 0.00 0.00 58 1012.3
20260505013632 59 204 0.0 0.0 0.00 0.00 0.00 59 1012.3
20260505013032 59 204 0.0 0.0 0.00 0.00 0.00 58 1012.2
20260505012532 60 204 0.0 0.0 0.00 0.00 0.00 57 1012.4
20260505012032 60 204 0.0 0.0 0.00 0.00 0.00 56 1012.3
20260505011534 60 204 0.0 0.0 0.00 0.00 0.00 57 1012.2
20260505011031 60 204 0.0 0.0 0.00 0.00 0.00 56 1012.1
20260505010531 60 204 0.0 0.0 0.00 0.00 0.00 55 1012.1
20260505010044 60 204 0.0 0.0 0.00 0.00 0.00 55 1012.2
20260505005531 61 204 0.0 0.0 0.00 0.00 0.00 54 1012.0
20260505005031 61 204 0.0 0.0 0.00 0.00 0.00 53 1011.8
20260505004532 62 204 0.0 0.0 0.00 0.00 0.00 53 1011.7
20260505004030 62 204 0.0 0.0 0.00 0.00 0.00 53 1011.7
20260505003532 62 204 0.0 0.0 0.00 0.00 0.00 52 1011.6
20260505003031 63 204 0.0 0.0 0.00 0.00 0.00 51 1011.6
20260505002534 63 204 0.0 0.0 0.00 0.00 0.00 50 1011.6
20260505002030 64 204 0.0 0.0 0.00 0.00 0.00 48 1011.5
20260505001530 64 204 0.0 0.9 0.00 0.00 0.00 48 1011.6
20260505001029 65 200 0.0 0.9 0.00 0.00 0.00 47 1011.5
20260505000529 65 225 0.0 0.9 0.00 0.00 0.00 47 1011.6
20260505000034 66 233 0.0 1.7 0.00 0.00 0.00 46 1011.5
20260504235529 66 237 0.0 1.7 0.00 0.00 0.00 46 1011.5
20260504235031 66 198 0.0 0.9 0.00 0.00 0.00 45 1011.5
20260504234529 67 210 0.0 0.9 0.00 0.00 0.00 45 1011.4
20260504234028 67 210 0.0 2.6 0.00 0.00 0.00 44 1011.3
20260504233529 67 155 0.0 2.6 0.00 0.00 0.00 43 1011.1
20260504233028 68 222 0.0 1.7 0.00 0.00 0.00 44 1011.1
20260504232528 68 227 0.0 0.9 0.00 0.00 0.00 43 1011.1
20260504232028 68 214 0.0 0.9 0.00 0.00 0.00 44 1011.1
20260504231532 69 205 0.0 2.6 0.00 0.00 0.00 43 1011.0
20260504231028 69 160 0.0 2.6 0.00 0.00 0.00 42 1011.1
20260504230529 69 214 0.0 2.6 0.00 0.00 0.00 42 1010.9
20260504230027 70 200 0.0 2.6 0.00 0.00 0.00 41 1010.9
20260504225526 70 210 0.0 4.3 0.00 0.00 0.00 41 1010.9
20260504225026 71 228 0.0 4.3 0.00 0.00 0.00 40 1010.9
20260504224532 71 170 0.0 6.1 0.00 0.00 0.00 40 1011.0
20260504224025 72 181 0.0 6.1 0.00 0.00 0.00 39 1011.0
20260504223525 73 199 0.0 2.6 0.00 0.00 0.00 39 1011.1
20260504223027 73 210 0.0 1.7 0.00 0.00 0.00 39 1011.0
20260504222525 73 238 0.0 6.1 0.00 0.00 0.00 39 1011.0
20260504222026 72 182 0.0 6.1 0.00 0.00 0.00 39 1011.1
20260504221525 73 192 0.0 6.1 0.00 0.00 0.00 38 1011.1
20260504221026 74 256 0.0 3.5 0.00 0.00 0.00 38 1011.1
20260504220524 74 266 0.0 2.6 0.00 0.00 0.00 37 1011.2
20260504220023 75 201 0.9 2.6 0.00 0.00 0.00 37 1011.2
20260504215529 75 188 0.0 1.7 0.00 0.00 0.00 38 1011.1
20260504215022 74 185 0.0 3.5 0.00 0.00 0.00 38 1011.1
20260504214535 73 217 0.0 7.8 0.00 0.00 0.00 38 1011.3
20260504214022 73 185 1.7 7.8 0.00 0.00 0.00 37 1011.2
20260504213522 74 164 0.9 5.2 0.00 0.00 0.00 38 1011.2
20260504213025 74 175 0.0 5.2 0.00 0.00 0.00 37 1011.3
20260504212521 75 219 0.0 0.0 0.00 0.00 0.00 37 1011.3
20260504212020 75 200 0.0 3.5 0.00 0.00 0.00 36 1011.5
20260504211522 75 186 0.0 4.3 0.00 0.00 0.00 38 1011.4
20260504211019 74 214 0.0 6.1 0.00 0.00 0.00 37 1011.4
20260504210522 74 215 0.0 6.1 0.00 0.00 0.00 38 1011.4
20260504210021 75 212 0.0 5.2 0.00 0.00 0.00 37 1011.5
20260504205518 74 184 0.0 7.0 0.00 0.00 0.00 37 1011.4
20260504205022 74 181 0.9 7.0 0.00 0.00 0.00 37 1011.6
20260504204517 74 174 0.0 4.3 0.00 0.00 0.00 38 1011.7
20260504204017 74 186 0.9 4.3 0.00 0.00 0.00 38 1011.6
20260504203515 73 210 0.0 3.5 0.00 0.00 0.00 39 1011.7
20260504203017 73 217 0.0 4.3 0.00 0.00 0.00 38 1011.7
20260504202514 72 194 0.9 4.3 0.00 0.00 0.00 38 1011.5
20260504202114 72 222 0.0 4.3 0.00 0.00 0.00 39 1011.4
20260504201513 73 230 0.9 4.3 0.00 0.00 0.00 37 1011.6
20260504201013 72 216 0.9 2.6 0.00 0.00 0.00 39 1011.5
20260504200510 72 197 0.0 4.3 0.00 0.00 0.00 39 1011.5
20260504200016 71 182 0.9 5.2 0.00 0.00 0.00 39 1011.8
20260504195509 71 120 1.7 5.2 0.00 0.00 0.00 38 1011.7
20260504195009 71 283 0.0 6.1 0.00 0.00 0.00 40 1011.7
20260504194511 71 274 0.9 6.1 0.00 0.00 0.00 39 1011.8
20260504194009 71 207 0.0 3.5 0.00 0.00 0.00 39 1011.9
20260504193514 71 201 0.0 6.1 0.00 0.00 0.00 40 1011.9
20260504193008 71 234 0.9 7.0 0.00 0.00 0.00 38 1011.9
20260504192509 71 144 0.9 6.1 0.00 0.00 0.00 39 1011.8
20260504192008 71 189 0.0 4.3 0.00 0.00 0.00 39 1012.1
20260504191506 71 199 0.9 4.3 0.00 0.00 0.00 39 1011.9
20260504191005 71 180 0.9 4.3 0.00 0.00 0.00 38 1012.2
20260504190506 71 181 0.0 2.6 0.00 0.00 0.00 38 1012.2
20260504190002 71 198 0.0 3.5 0.00 0.00 0.00 38 1012.3
20260504185502 71 193 0.0 3.5 0.00 0.00 0.00 38 1012.4
20260504185002 71 216 0.9 3.5 0.00 0.00 0.00 38 1012.3
20260504184502 71 170 0.0 4.3 0.00 0.00 0.00 39 1012.4
20260504184101 71 181 0.9 4.3 0.00 0.00 0.00 38 1012.4
20260504183601 71 193 0.0 3.5 0.00 0.00 0.00 40 1012.5
20260504183059 71 188 0.0 4.3 0.00 0.00 0.00 39 1012.5
20260504182601 71 191 0.0 3.5 0.00 0.00 0.00 39 1012.5
20260504182057 71 236 0.0 3.5 0.00 0.00 0.00 38 1012.6
20260504181602 71 205 0.0 3.5 0.00 0.00 0.00 38 1012.8
20260504181056 70 206 0.0 5.2 0.00 0.00 0.00 39 1012.7
20260504180553 70 113 0.9 5.2 0.00 0.00 0.00 38 1013.0
20260504180054 70 206 0.0 3.5 0.00 0.00 0.00 40 1013.0
20260504175553 70 131 0.0 3.5 0.00 0.00 0.00 41 1013.3
20260504175053 70 154 0.0 3.5 0.00 0.00 0.00 39 1013.2
20260504174556 70 204 0.0 5.2 0.00 0.00 0.00 39 1013.2
20260504174053 71 207 0.9 6.1 0.00 0.00 0.00 38 1013.4
20260504173552 71 54 0.9 6.1 0.00 0.00 0.00 38 1013.3
20260504173050 71 131 0.9 4.3 0.00 0.00 0.00 39 1013.5
20260504172549 71 179 0.0 2.6 0.00 0.00 0.00 37 1013.5
20260504172049 71 233 0.0 1.7 0.00 0.00 0.00 38 1013.6
20260504171549 71 180 0.0 3.5 0.00 0.00 0.00 39 1013.7
20260504171048 71 193 0.0 4.3 0.00 0.00 0.00 39 1013.5
20260504170547 71 208 0.9 4.3 0.00 0.00 0.00 38 1013.6